This is the latest recevied weather packets stored in our database for station/object KI5NXU. If no packets are shown the sender has not sent any weather packets the latest 10 day(s).
| Time | Temp. | Humidity | Pressure | Rain* | Wind** | Luminosity | Snow |
|---|---|---|---|---|---|---|---|
| 1777659494 | 16.11° C | 66% | 1015.7 hPa | 0 mm | - | 135 W/m² | - |
| 1777659191 | 16.67° C | 65% | 1015.9 hPa | 0 mm | - | 141 W/m² | - |
| 1777658889 | 16.67° C | 65% | 1015.7 hPa | 0 mm | - | 138 W/m² | - |
| 1777658585 | 16.67° C | 68% | 1015.7 hPa | 0 mm | - | 183 W/m² | - |
| 1777658282 | 16.67° C | 68% | 1015.8 hPa | 0 mm | - | 200 W/m² | - |
| 1777657979 | 16.67° C | 68% | 1015.7 hPa | 0 mm | - | 221 W/m² | - |
| 1777657675 | 16.67° C | 68% | 1015.5 hPa | 0 mm | - | 278 W/m² | - |
| 1777657373 | 16.67° C | 67% | 1015.9 hPa | 0 mm | - | 294 W/m² | - |
| 1777657070 | 17.22° C | 70% | 1015.9 hPa | 0 mm | - | 260 W/m² | - |
| 1777656767 | 17.22° C | 70% | 1015.9 hPa | 0 mm | - | 295 W/m² | - |
| 1777656463 | 17.22° C | 67% | 1015.8 hPa | 0 mm | - | 332 W/m² | - |
| 1777656158 | 17.22° C | 68% | 1016.1 hPa | 0 mm | - | 295 W/m² | - |
| 1777655854 | 17.22° C | 69% | 1016.2 hPa | 0 mm | - | 327 W/m² | - |
| 1777655552 | 17.78° C | 69% | 1016.1 hPa | 0 mm | - | 363 W/m² | - |
| 1777655248 | 17.22° C | 70% | 1016.2 hPa | 0 mm | - | 472 W/m² | - |
| 1777654945 | 16.67° C | 72% | 1016.1 hPa | 0 mm | - | 405 W/m² | - |
| 1777654643 | 16.67° C | 72% | 1016.1 hPa | 0 mm | - | 520 W/m² | - |
| 1777654340 | 16.11° C | 75% | 1016.7 hPa | 0 mm | - | 321 W/m² | - |
| 1777654038 | 16.11° C | 76% | 1016.6 hPa | 0 mm | - | 320 W/m² | - |
| 1777653735 | 15.56° C | 76% | 1016.8 hPa | 0 mm | - | 360 W/m² | - |
| 1777653431 | 15.56° C | 77% | 1016.7 hPa | 0 mm | - | 344 W/m² | - |
| 1777653128 | 15.56° C | 77% | 1016.8 hPa | 0 mm | - | 308 W/m² | - |
| 1777652824 | 15.56° C | 78% | 1016.7 hPa | 0 mm | - | 256 W/m² | - |
| 1777652521 | 15.56° C | 78% | 1016.8 hPa | 0 mm | - | 244 W/m² | - |
| 1777652218 | 15.56° C | 79% | 1016.8 hPa | 0 mm | - | 286 W/m² | - |
* Rain latest hour (hover to see other rain measurements)
** Current wind speed in m/s (hover to see current wind gust speed)